Home   Weather   Solothurn   Past weeks

Flag for Switzerland Past Weather in Solothurn, Solothurn, Switzerland — Yesterday and Last 2 Weeks

Now
62 °F

Mild.


Feels Like: 62 °F
Forecast: 60 / 72 °F
Wind: 2 mph from Southwest

Location: Grenchen

Current Time: Jul 22, 2017 at 5:00:30 am

Latest Report: Jul 22, 2017 at 3:00 am


Visibility: N/A

Pressure: 29.95 "Hg

Humidity: 97%

Dew Point: 62 °F

Location of SolothurnLocation

Past Weather in Solothurn — Graph

°F

Solothurn Temperature Yesterday

Maximum temperature yesterday: 82 °F (at 3:00 pm)
Minimum temperature yesterday: 63 °F (at 4:00 am)
Average temperature yesterday: 70 °F

High & Low Weather Summary for the Past Weeks

 TemperatureHumidityPressure
High89 °F (Jul 7, 4:00 pm)99% (Jul 10, 4:00 am)30.29 "Hg (Jul 10, 4:00 am)
Low51 °F (Jul 16, 3:00 am)31% (Jul 19, 4:00 pm)29.77 "Hg (Jul 21, 5:00 pm)
Average69 °F70%30.02 "Hg
* Reported Jul 7 3:00 am — Jul 22 3:00 am, Solothurn. Weather by CustomWeather, © 2017

Note: Actual official high and low records may vary slightly from our data, if they occured in-between our weather recording intervals... More about our weather records

Advertising

Solothurn Weather History for the Previous 24 Hours

Scroll right to see more
 ConditionsComfort  
Time TempWeatherWind HumidityBarometerVisibility
3:00 am
Sat, Jul 22
62 °FMild.2 mph97%29.95 "HgN/A
2:00 am64 °FMild.2 mph95%29.95 "HgN/A
1:00 am64 °FMild.3 mph95%29.95 "HgN/A
12:00 am64 °FMild.3 mph94%29.96 "HgN/A
11:00 pm
Fri, Jul 21
65 °FMild.6 mph94%29.96 "HgN/A
10:00 pm64 °FMild.5 mph94%29.93 "HgN/A
9:00 pm65 °FMild.3 mph92%29.91 "HgN/A
8:00 pm66 °FMild.1 mph89%29.89 "HgN/A
7:00 pm65 °FMild.6 mph88%29.91 "HgN/A
6:00 pm65 °FMild.12 mph86%29.89 "HgN/A
5:00 pm79 °FWarm.2 mph53%29.77 "HgN/A
4:00 pm81 °FWarm.5 mph47%29.78 "HgN/A
3:00 pm82 °FWarm.7 mph48%29.80 "HgN/A
2:00 pm80 °FWarm.5 mph52%29.83 "HgN/A
1:00 pm78 °FWarm.7 mph56%29.85 "HgN/A
12:00 pm77 °FMild.9 mph58%29.87 "HgN/A
11:00 am75 °FMild.10 mph59%29.89 "HgN/A
10:00 am72 °FMild.7 mph66%29.91 "HgN/A
9:00 am68 °FMild.6 mph76%29.93 "HgN/A
8:00 am66 °FMild.5 mph85%29.94 "HgN/A
7:00 am64 °FMild.5 mph91%29.94 "HgN/A
6:00 am64 °FMild.2 mph94%29.94 "HgN/A
5:00 am64 °FMild.2 mph89%29.95 "HgN/A
Weather by CustomWeather, © 2017

See weather overviewHow to use our weather pages